Location: Clyde
(45.1830°S, 169.3170°E)
Time: 17:55:06
(UTC+12:00)

IRIDIUM 106 - Pass Details

Date: 14 May 2021
Orbit: 776 x 779 km, 86.4° (Epoch: 16 June)

Event Time Altitude Azimuth Distance (km) Brightness Sun altitude
Rises 18:17:09 0° 181° (S) 3,302 7.4 -9.4°
Reaches altitude 10° 18:19:34 10° 177° (S) 2,367 6.6 -9.8°
Maximum altitude 18:24:50 64° 96° (E) 876 4.3 -10.7°
Drops below altitude 10° 18:30:02 10° 14° (NNE) 2,338 6.8 -11.6°
Sets 18:32:23 0° 10° (N) 3,258 7.6 -12.0°
